Погода в Творожкове

Россия / Псковская область     58°21′30″N   28°40′08″E
темп.,
°C
ветер,
м/с
пор.,
м/с
влажн.,
%
обл.,
%
осадки,
мм/ч
давл.,
гПа
погр.,
м
23 октября, сб
сб2300:00+5юз6128365 0.1 9921026
03:00+3юз513919 0.1 993559
06:00+3юз514888 0.0 993701
09:00+4зюз51088100 0.0 995917
12:00+3з5894100 1.3 997865
15:00+2зюз4996100 1.8 1000669
18:00+3ссз499199 0.5 1004843
21:00+3ссз5109096 0.6 1008855
24 октября, вс
вс2400:00+2сз4109289 0.0 1012673
03:00+2ссз5108496 0.2 1015980
06:00+1сз5108682 0.1 1018787
09:000сз398914 0.1 1020641
12:00+3сз476591 0.0 10231224
15:00+3сз466267 0.0 10251211
18:00+1зсз268097 0.0 1026217
21:000юз2482100 0.0 1026129
25 октября, пн
пн2500:00+1ююз388199 0.0 1026260
03:00+1ююз41289100 0.0 1024343
06:00+2ююз51391100 0.0 1022473
09:00+3юз51494100 0.0 1021548
12:00+6юз51484100 0.0 1021674
15:00+7зюз61178100 0.0 1020924
18:00+6юз512845 0.0 1019683
21:00+4юз413850 0.0 1019493
26 октября, вт
вт2600:00+3юз4138740 0.0 1018449
03:00+2ююз41289100 0.0 1017366
06:00+2ююз41189100 0.0 1016316
09:00+2ююз31089100 0.0 1015295
12:00+5юз4977100 0.0 1015420
15:00+7юз4974100 0.0 1014603
18:00+5ююз31085100 0.0 1013341
21:00+4юз41190100 0.0 1013365
27 октября, ср
ср2700:00+5ююз41192100 0.6 1011434
03:00+6зюз41197100 3.4 1009575
06:00+7з6118494 0.1 1009856
09:00+6з5108998 0.3 1010916
12:00+8з5108131 0.3 1011946
15:00+9з511775 0.3 10121018
18:00+7з5128733 0.0 1013712
21:00+6з4119352 0.0 1014553